Location: Estrella Escondido
(31.8318°N, 104.8079°W)
Time: 10:46:43
(UTC-06:00)

ISS - Visible Passes

Search period start: 20 July 2018 00:00
Search period end: 30 July 2018 00:00
Orbit: 402 x 408 km, 51.6° (Epoch: 20 July)

Date Brightness Start Highest point End Pass type
(mag) Time Alt. Az. Time Alt. Az. Time Alt. Az.
20 Jul -3.8 05:14:44 10° NW 05:18:02 83° NE 05:21:19 10° SE visible
20 Jul -1.1 21:51:51 10° W 21:54:27 21° NW 21:57:03 10° NNE visible
21 Jul -2.2 04:22:48 10° NNW 04:25:53 37° NE 04:28:58 10° ESE visible
21 Jul -2.4 20:59:07 10° WSW 21:02:13 41° NW 21:05:20 10° NNE visible
22 Jul -1.0 03:31:09 10° NNW 03:33:38 20° NE 03:36:07 10° E visible
22 Jul -3.0 05:07:13 10° WNW 05:10:08 30° SW 05:13:03 10° SSE visible
22 Jul -0.1 21:46:24 10° NW 21:46:56 10° NNW 21:47:29 10° NNW visible
23 Jul -0.7 20:52:17 10° W 20:54:33 17° NW 20:56:50 10° N visible
